Clinton, AR

5:06 AM CDT on May 27, 2017 (GMT -0500)
Clinton

Weather History for KCCA - October, 2012

Change the Weather History Date:

Saturday, October 13, 2012

  Actual Average (KBVX) Record (KBVX)
Temperature  
Mean Temperature 67 °F -  
Max Temperature 75 °F 76 °F 91 °F (1975)
Min Temperature 59 °F 50 °F 31 °F (1977)
Cooling Degree Days 2    
Growing Degree Days 17 (Base 50)    
Moisture  
Dew Point 63 °F    
Average Humidity 90    
Maximum Humidity 100    
Minimum Humidity 73    
Precipitation  
Precipitation 0.04 in - - ()
Sea Level Pressure  
Sea Level Pressure 30.07 in    
Wind  
Wind Speed 1 mph (SSE)    
Max Wind Speed 8 mph    
Max Gust Speed -    
Visibility 5 miles    
Events Fog , Rain    
Averages and records for this station are not official NWS values.
T = Trace of Precipitation, MM = Missing Value Source: NWS Daily Summary

Daily Weather History Graph

Daily Weather History Graph

Search for Another Location

Airport or City:

Trip Planner

Search our weather history database for the weather conditions in past years. The results will help you decide how hot, cold, wet, or windy it might be!

Date:

Astronomy

Oct. 13, 2012 Rise Set
Actual Time 7:14 AM CDT 6:36 PM CDT
Civil Twilight 6:49 AM CDT 7:01 PM CDT
Nautical Twilight 6:19 AM CDT 7:31 PM CDT
Astronomical Twilight 5:50 AM CDT 8:00 PM CDT
Moon 5:08 AM CDT (10/13) 5:18 PM CDT (10/13)
Length of Visible Light 12h 12m
Length of Day
11h 21m
Waning Crescent, 5% of the Moon is Illuminated
Oct 13
Waning Crescent
Oct 15
New
Oct 21
First Quarter
Oct 29
Full
Nov 6
Last Quarter

Hourly Weather History & Observations

Time (CDT) Temp. Dew Point Humidity Pressure Visibility Wind Dir Wind Speed Gust Speed Precip Events Conditions
12:55 AM 59.0 °F 57.2 °F 94% 30.21 in 2.5 mi Calm Calm - N/A   Overcast
1:15 AM 59.0 °F 57.2 °F 94% 30.20 in 2.5 mi Calm Calm - N/A   Overcast
1:35 AM 59.0 °F 59.0 °F 100% 30.19 in 1.5 mi Calm Calm - N/A   Overcast
1:55 AM 59.0 °F 59.0 °F 100% 30.19 in 1.0 mi Calm Calm - N/A   Overcast
2:15 AM 59.0 °F 59.0 °F 100% 30.19 in 0.5 mi Calm Calm - N/A Fog Fog
2:35 AM 59.0 °F 59.0 °F 100% 30.18 in 0.5 mi Calm Calm - N/A Fog Fog
2:55 AM 59.0 °F 59.0 °F 100% 30.17 in 0.5 mi Calm Calm - N/A Fog Fog
3:15 AM 59.0 °F 59.0 °F 100% 30.16 in 0.2 mi Calm Calm - N/A Fog Fog
3:35 AM 59.0 °F 59.0 °F 100% 30.15 in 0.2 mi Calm Calm - N/A Fog Fog
3:55 AM 59.0 °F 59.0 °F 100% 30.15 in 0.2 mi Calm Calm - N/A Fog Fog
4:15 AM 60.8 °F 59.0 °F 94% 30.15 in 0.2 mi Calm Calm - N/A Fog Fog
4:35 AM 60.8 °F 59.0 °F 94% 30.15 in 0.2 mi Calm Calm - N/A Fog Fog
4:55 AM 60.8 °F 59.0 °F 94% 30.16 in 0.2 mi Calm Calm - N/A Fog Fog
5:15 AM 60.8 °F 60.8 °F 100% 30.16 in 0.2 mi Calm Calm - N/A Fog Fog
5:35 AM 60.8 °F 60.8 °F 100% 30.17 in 0.2 mi Calm Calm - N/A Fog Fog
5:55 AM 60.8 °F 60.8 °F 100% 30.17 in 0.2 mi Calm Calm - N/A Fog Fog
6:15 AM 60.8 °F 60.8 °F 100% 30.17 in 0.2 mi Calm Calm - N/A Fog Fog
6:35 AM 60.8 °F 60.8 °F 100% 30.17 in 0.2 mi Calm Calm - N/A Fog Fog
6:55 AM 60.8 °F 60.8 °F 100% 30.17 in 0.2 mi Calm Calm - N/A Fog Fog
7:15 AM 60.8 °F 60.8 °F 100% 30.17 in 0.2 mi Calm Calm - N/A Fog Fog
7:35 AM 60.8 °F 60.8 °F 100% 30.17 in 0.2 mi Calm Calm - N/A Fog Fog
7:55 AM 60.8 °F 60.8 °F 100% 30.16 in 0.2 mi Calm Calm - N/A Fog Fog
8:15 AM 60.8 °F 60.8 °F 100% 30.16 in 0.5 mi Calm Calm - N/A Fog Fog
8:55 AM 60.8 °F 60.8 °F 100% 30.17 in 0.5 mi Calm Calm - N/A Fog Fog
9:35 AM 62.6 °F 62.6 °F 100% 30.16 in 4.0 mi Calm Calm - N/A   Overcast
9:55 AM 62.6 °F 62.6 °F 100% 30.16 in 4.0 mi Calm Calm - N/A   Overcast
10:15 AM 64.4 °F 62.6 °F 94% 30.15 in 5.0 mi Calm Calm - N/A   Overcast
10:35 AM 64.4 °F 62.6 °F 94% 30.14 in 6.0 mi South 4.6 mph - N/A   Overcast
10:55 AM 64.4 °F 62.6 °F 94% 30.13 in 7.0 mi Calm Calm - N/A   Overcast
11:15 AM 64.4 °F 62.6 °F 94% 30.13 in 5.0 mi Calm Calm - N/A   Overcast
11:35 AM 66.2 °F 64.4 °F 94% 30.12 in 5.0 mi Calm Calm - N/A   Overcast
11:55 AM 66.2 °F 64.4 °F 94% 30.12 in 4.0 mi Calm Calm - N/A   Overcast
12:35 PM 66.2 °F 64.4 °F 94% 30.10 in 3.0 mi SSE 4.6 mph - N/A   Overcast
12:55 PM 68.0 °F 64.4 °F 88% 30.09 in 3.0 mi Calm Calm - N/A   Overcast
1:15 PM 69.8 °F 64.4 °F 83% 30.08 in 5.0 mi SSE 6.9 mph - N/A   Overcast
1:35 PM 69.8 °F 66.2 °F 88% 30.06 in 5.0 mi SSE 3.5 mph - N/A   Mostly Cloudy
1:55 PM 71.6 °F 66.2 °F 83% 30.05 in 5.0 mi SSE 4.6 mph - N/A   Haze
2:15 PM 73.4 °F 66.2 °F 78% 30.03 in 6.0 mi Calm Calm - N/A   Haze
2:35 PM 73.4 °F 66.2 °F 78% 30.02 in 6.0 mi Calm Calm - N/A   Haze
3:15 PM 75.2 °F 68.0 °F 78% 30.00 in 9.0 mi SSE 6.9 mph - N/A   Mostly Cloudy
3:35 PM 75.2 °F 68.0 °F 78% 29.99 in 9.0 mi SSE 5.8 mph - N/A   Mostly Cloudy
3:55 PM 75.2 °F 68.0 °F 78% 29.99 in 9.0 mi Calm Calm - N/A   Mostly Cloudy
4:15 PM 75.2 °F 68.0 °F 78% 29.98 in 9.0 mi South 3.5 mph - N/A   Mostly Cloudy
4:35 PM 75.2 °F 68.0 °F 78% 29.97 in 10.0 mi Calm Calm - N/A   Mostly Cloudy
4:55 PM 75.2 °F 68.0 °F 78% 29.97 in 10.0 mi Calm Calm - N/A   Overcast
5:15 PM 75.2 °F 68.0 °F 78% 29.97 in 10.0 mi Calm Calm - N/A   Overcast
5:35 PM 75.2 °F 68.0 °F 78% 29.97 in 10.0 mi Calm Calm - N/A   Overcast
5:55 PM 75.2 °F 66.2 °F 73% 29.96 in 9.0 mi Calm Calm - N/A   Mostly Cloudy
6:15 PM 73.4 °F 66.2 °F 78% 29.95 in 10.0 mi SSE 5.8 mph - N/A   Overcast
6:35 PM 75.2 °F 66.2 °F 73% 29.94 in 10.0 mi SE 8.1 mph - N/A   Mostly Cloudy
6:55 PM 73.4 °F 66.2 °F 78% 29.94 in 10.0 mi SE 4.6 mph - N/A   Partly Cloudy
7:35 PM 73.4 °F 66.2 °F 78% 29.94 in 10.0 mi Calm Calm - N/A   Clear
7:55 PM 73.4 °F 66.2 °F 78% 29.93 in 10.0 mi SE 3.5 mph - N/A   Clear
8:55 PM 73.4 °F 66.2 °F 78% 29.93 in 10.0 mi Calm Calm - N/A   Partly Cloudy
9:15 PM 73.4 °F 66.2 °F 78% 29.93 in 10.0 mi SSE 6.9 mph - N/A   Scattered Clouds
9:35 PM 73.4 °F 66.2 °F 78% 29.92 in 10.0 mi SE 5.8 mph - N/A   Scattered Clouds
9:55 PM 73.4 °F 66.2 °F 78% 29.92 in 9.0 mi Calm Calm - N/A   Mostly Cloudy
10:15 PM 71.6 °F 66.2 °F 83% 29.91 in 5.0 mi SSE 6.9 mph - 0.02 in Rain Heavy Rain
10:55 PM 71.6 °F 68.0 °F 88% 29.89 in 7.0 mi Calm Calm - 0.03 in   Mostly Cloudy
11:35 PM 69.8 °F 68.0 °F 94% 29.87 in 9.0 mi Calm Calm - 0.01 in   Overcast